• In Österreich
  • Länderverzeichnis
  • Für 7 Tage
  • Wassertemperatur
  • Satellitenkarten
  • Wetterkarte
  • News
  • Widgets
  • user-avatar
    Anmelden

    Stündliche Wetter Fier

    Heute, 17 Februar, Samstag

    Zeit Temperatur Niederschläge Wind Luftdruck Luftfeuchtigkeit
    00:00 +8°C° 0 mm 3 m/S 766 mmHg 74%
    01:00 +8°C° 0 mm 2 m/S 766 mmHg 73%
    02:00 +8°C° 0 mm 2 m/S 766 mmHg 72%
    03:00 +7°C° 0 mm 2 m/S 766 mmHg 72%
    04:00 +7°C° 0 mm 2 m/S 766 mmHg 71%
    05:00 +7°C° 0 mm 2 m/S 766 mmHg 70%
    06:00 +7°C° 0 mm 2 m/S 766 mmHg 70%
    07:00 +8°C° 0 mm 2 m/S 766 mmHg 69%
    08:00 +10°C° 0 mm 2 m/S 766 mmHg 64%
    09:00 +13°C° 0 mm 1 m/S 766 mmHg 59%
    10:00 +15°C° 0 mm 1 m/S 766 mmHg 54%
    11:00 +16°C° 0 mm 1 m/S 765 mmHg 51%
    12:00 +18°C° 0 mm 1 m/S 765 mmHg 49%
    13:00 +19°C° 0 mm 1 m/S 765 mmHg 46%
    14:00 +18°C° 0 mm 1 m/S 764 mmHg 50%
    15:00 +18°C° 0 mm 1 m/S 764 mmHg 54%
    16:00 +16°C° 0 mm 1 m/S 764 mmHg 58%
    17:00 +15°C° 0 mm 1 m/S 764 mmHg 63%
    18:00 +13°C° 0 mm 1 m/S 764 mmHg 69%
    19:00 +12°C° 0 mm 1 m/S 764 mmHg 74%
    20:00 +10°C° 0 mm 2 m/S 764 mmHg 75%
    21:00 +10°C° 0 mm 2 m/S 764 mmHg 76%
    22:00 +10°C° 0 mm 3 m/S 764 mmHg 77%
    23:00 +10°C° 0 mm 3 m/S 764 mmHg 77%

    Morgen, 18 Februar, Sonntag

    Zeit Temperatur Niederschläge Wind Luftdruck Luftfeuchtigkeit
    00:00 +9°C° 0 mm 3 m/S 764 mmHg 78%
    01:00 +9°C° 0 mm 3 m/S 764 mmHg 79%
    02:00 +9°C° 0 mm 3 m/S 763 mmHg 79%
    03:00 +9°C° 0 mm 3 m/S 763 mmHg 80%
    04:00 +9°C° 0 mm 3 m/S 763 mmHg 80%
    05:00 +8°C° 0 mm 4 m/S 763 mmHg 80%
    06:00 +8°C° 0 mm 4 m/S 763 mmHg 79%
    07:00 +8°C° 0 mm 4 m/S 762 mmHg 79%
    08:00 +10°C° 0 mm 4 m/S 762 mmHg 74%
    09:00 +12°C° 0 mm 4 m/S 762 mmHg 69%
    10:00 +13°C° 0 mm 4 m/S 762 mmHg 63%
    11:00 +14°C° 0 mm 4 m/S 762 mmHg 61%
    12:00 +14°C° 0 mm 4 m/S 761 mmHg 58%
    13:00 +15°C° 0 mm 4 m/S 761 mmHg 56%
    14:00 +15°C° 0 mm 4 m/S 761 mmHg 58%
    15:00 +15°C° 0 mm 4 m/S 760 mmHg 60%
    16:00 +14°C° 0 mm 4 m/S 760 mmHg 62%
    17:00 +13°C° 0,1 mm 4 m/S 760 mmHg 67%
    18:00 +12°C° 0,1 mm 4 m/S 760 mmHg 71%
    19:00 +12°C° 0,1 mm 3 m/S 760 mmHg 76%
    20:00 +11°C° 0,2 mm 3 m/S 760 mmHg 77%
    21:00 +11°C° 0,2 mm 3 m/S 760 mmHg 77%
    22:00 +11°C° 0,2 mm 3 m/S 760 mmHg 78%
    23:00 +11°C° 0,3 mm 3 m/S 760 mmHg 79%

    übermorgen, 19 Februar, Montag

    Zeit Temperatur Niederschläge Wind Luftdruck Luftfeuchtigkeit
    00:00 +10°C° 0,3 mm 3 m/S 760 mmHg 79%
    01:00 +10°C° 0,3 mm 3 m/S 760 mmHg 80%
    02:00 +10°C° 0,3 mm 3 m/S 759 mmHg 80%
    03:00 +10°C° 0,3 mm 3 m/S 759 mmHg 80%
    04:00 +10°C° 0,3 mm 3 m/S 759 mmHg 81%
    05:00 +10°C° 0,3 mm 3 m/S 759 mmHg 81%
    06:00 +10°C° 0,3 mm 3 m/S 759 mmHg 81%
    07:00 +10°C° 0,3 mm 4 m/S 759 mmHg 81%
    08:00 +11°C° 0,3 mm 4 m/S 759 mmHg 76%
    09:00 +12°C° 0,3 mm 4 m/S 759 mmHg 70%
    10:00 +14°C° 0,3 mm 4 m/S 759 mmHg 65%
    11:00 +14°C° 0,4 mm 4 m/S 759 mmHg 62%
    12:00 +14°C° 0,4 mm 4 m/S 758 mmHg 60%
    13:00 +15°C° 0,4 mm 4 m/S 758 mmHg 57%
    14:00 +14°C° 0,4 mm 4 m/S 758 mmHg 62%
    15:00 +13°C° 0,4 mm 4 m/S 758 mmHg 67%
    16:00 +13°C° 0,4 mm 4 m/S 757 mmHg 73%
    17:00 +12°C° 0,5 mm 4 m/S 757 mmHg 77%
    18:00 +12°C° 0,5 mm 4 m/S 758 mmHg 81%
    19:00 +11°C° 0,5 mm 4 m/S 758 mmHg 85%
    20:00 +11°C° 0,3 mm 4 m/S 758 mmHg 85%
    21:00 +11°C° 0,3 mm 4 m/S 758 mmHg 85%
    22:00 +11°C° 0,3 mm 4 m/S 758 mmHg 85%
    23:00 +11°C° 0,3 mm 4 m/S 758 mmHg 85%

    20 Februar, Dienstag

    Zeit Temperatur Niederschläge Wind Luftdruck Luftfeuchtigkeit
    00:00 +11°C° 0,3 mm 4 m/S 758 mmHg 85%
    01:00 +11°C° 0,3 mm 4 m/S 757 mmHg 85%
    02:00 +10°C° 0,9 mm 4 m/S 757 mmHg 85%
    03:00 +10°C° 0,9 mm 4 m/S 757 mmHg 85%
    04:00 +10°C° 0,9 mm 4 m/S 756 mmHg 85%
    05:00 +10°C° 1,1 mm 4 m/S 756 mmHg 84%
    06:00 +10°C° 1,1 mm 4 m/S 756 mmHg 84%
    07:00 +9°C° 1,1 mm 5 m/S 756 mmHg 84%
    08:00 +10°C° 0,5 mm 5 m/S 756 mmHg 81%
    09:00 +10°C° 0,5 mm 5 m/S 756 mmHg 77%
    10:00 +11°C° 0,5 mm 6 m/S 756 mmHg 74%
    11:00 +11°C° 0,6 mm 6 m/S 756 mmHg 72%
    12:00 +13°C° 0,6 mm 6 m/S 756 mmHg 71%
    13:00 +13°C° 0,6 mm 6 m/S 756 mmHg 70%
    14:00 +13°C° 0,3 mm 6 m/S 755 mmHg 70%
    15:00 +13°C° 0,3 mm 6 m/S 755 mmHg 70%
    16:00 +14°C° 0,3 mm 6 m/S 755 mmHg 71%
    17:00 +13°C° 0,4 mm 5 m/S 755 mmHg 75%
    18:00 +12°C° 0,4 mm 5 m/S 755 mmHg 79%
    19:00 +11°C° 0,4 mm 4 m/S 755 mmHg 83%
    20:00 +10°C° 0,4 mm 4 m/S 755 mmHg 84%
    21:00 +10°C° 0,4 mm 4 m/S 755 mmHg 85%
    22:00 +10°C° 0,4 mm 4 m/S 755 mmHg 86%
    23:00 +10°C° 0,3 mm 4 m/S 755 mmHg 86%

    21 Februar, Mittwoch

    Zeit Temperatur Niederschläge Wind Luftdruck Luftfeuchtigkeit
    00:00 +10°C° 0,3 mm 4 m/S 754 mmHg 86%
    01:00 +10°C° 0,3 mm 4 m/S 754 mmHg 86%
    02:00 +10°C° 0,7 mm 4 m/S 754 mmHg 86%
    03:00 +10°C° 0,7 mm 4 m/S 753 mmHg 86%
    04:00 +10°C° 0,7 mm 4 m/S 753 mmHg 86%
    05:00 +10°C° 0,8 mm 4 m/S 753 mmHg 85%
    06:00 +9°C° 0,8 mm 5 m/S 753 mmHg 84%
    07:00 +9°C° 0,8 mm 5 m/S 753 mmHg 84%
    08:00 +10°C° 0,5 mm 5 m/S 753 mmHg 79%
    09:00 +12°C° 0,5 mm 5 m/S 753 mmHg 74%
    10:00 +13°C° 0,5 mm 5 m/S 752 mmHg 70%
    11:00 +13°C° 1,4 mm 5 m/S 752 mmHg 69%
    12:00 +13°C° 1,4 mm 5 m/S 752 mmHg 69%
    13:00 +14°C° 1,4 mm 4 m/S 751 mmHg 68%
    14:00 +13°C° 2,4 mm 4 m/S 751 mmHg 72%
    15:00 +13°C° 2,4 mm 4 m/S 751 mmHg 76%
    16:00 +13°C° 2,4 mm 3 m/S 751 mmHg 80%
    17:00 +12°C° 2 mm 3 m/S 751 mmHg 83%
    18:00 +11°C° 2 mm 3 m/S 751 mmHg 87%
    19:00 +11°C° 2 mm 3 m/S 752 mmHg 90%
    20:00 +11°C° 1,1 mm 3 m/S 752 mmHg 90%
    21:00 +11°C° 1,1 mm 3 m/S 752 mmHg 89%
    22:00 +11°C° 1,1 mm 3 m/S 752 mmHg 89%
    23:00 +11°C° 1,3 mm 3 m/S 752 mmHg 89%

    22 Februar, Donnerstag

    Zeit Temperatur Niederschläge Wind Luftdruck Luftfeuchtigkeit
    00:00 +10°C° 1,3 mm 3 m/S 752 mmHg 88%
    01:00 +10°C° 1,3 mm 3 m/S 752 mmHg 88%
    02:00 +10°C° 0,9 mm 3 m/S 751 mmHg 87%
    03:00 +10°C° 0,9 mm 3 m/S 751 mmHg 86%
    04:00 +10°C° 0,9 mm 3 m/S 751 mmHg 85%
    05:00 +10°C° 1 mm 3 m/S 751 mmHg 85%
    06:00 +10°C° 1 mm 3 m/S 751 mmHg 86%
    07:00 +10°C° 1 mm 3 m/S 751 mmHg 86%
    08:00 +11°C° 0,4 mm 3 m/S 751 mmHg 81%
    09:00 +13°C° 0,4 mm 3 m/S 751 mmHg 76%
    10:00 +14°C° 0,4 mm 3 m/S 751 mmHg 71%
    11:00 +14°C° 0,3 mm 3 m/S 751 mmHg 69%
    12:00 +16°C° 0,3 mm 3 m/S 751 mmHg 67%
    13:00 +17°C° 0,3 mm 3 m/S 751 mmHg 65%
    14:00 +16°C° 0,3 mm 3 m/S 751 mmHg 67%
    15:00 +16°C° 0,3 mm 3 m/S 751 mmHg 69%
    16:00 +16°C° 0,3 mm 2 m/S 751 mmHg 71%
    17:00 +15°C° 0,1 mm 2 m/S 751 mmHg 77%
    18:00 +13°C° 0,1 mm 2 m/S 751 mmHg 82%
    19:00 +12°C° 0,1 mm 2 m/S 752 mmHg 88%
    20:00 +12°C° 0 mm 2 m/S 752 mmHg 87%
    21:00 +12°C° 0 mm 2 m/S 752 mmHg 87%
    22:00 +12°C° 0 mm 2 m/S 752 mmHg 86%
    23:00 +10°C° 0 mm 3 m/S 752 mmHg 86%
    Mehr zeigen